Location: Sebastopol
(38.4021°N, 122.8239°W)
Time: 15:30:21
(UTC+00:00)

PSLV R/B - Pass Details

Date: 29 October 2020
Orbit: 504 x 578 km, 97.8° (Epoch: 30 November)

Event Time Altitude Azimuth Distance (km) Brightness Sun altitude
Rises 13:59:58 0° 10° (N) 2,802 7.4 -7.5°
Reaches altitude 10° 14:02:08 10° 8° (N) 1,899 6.5 -7.1°
Maximum altitude 14:06:14 74° 284° (WNW) 604 3.9 -6.3°
Drops below altitude 10° 14:10:18 10° 200° (SSW) 1,871 6.5 -5.5°
Sets 14:12:25 0° 198° (SSW) 2,756 7.3 -5.1°
